Location: Pine Mountain Observatory
(43.7910°N, 120.9377°W)
Time: 00:46:20
(UTC-08:00)

Cosmos 1867 - Visible Passes

Search period start: 26 November 2014 00:00
Search period end: 06 December 2014 00:00
Orbit: 778 x 798 km, 65.0° (Epoch: 25 November)

Date Brightness Start Highest point End Pass type
(mag) Time Alt. Az. Time Alt. Az. Time Alt. Az.
26 Nov 3.6 18:12:50 10° SSW 18:18:07 56° ESE 18:20:08 35° ENE visible
26 Nov 5.4 19:57:22 10° W 20:00:51 26° WNW 20:00:51 26° WNW visible
27 Nov 4.0 17:41:33 10° S 17:46:36 41° ESE 17:50:00 19° NE visible
27 Nov 4.8 19:25:18 10° WSW 19:30:16 35° NW 19:30:42 35° NW visible
28 Nov 4.5 17:10:26 10° S 17:15:07 31° ESE 17:19:47 10° NE visible
28 Nov 4.4 18:53:20 10° WSW 18:58:32 45° NW 19:00:29 32° N visible
28 Nov 6.5 20:41:10 10° NW 20:41:10 10° NW 20:41:10 10° NW visible
29 Nov 4.0 18:21:30 10° SW 18:26:51 59° NW 18:30:11 23° NNE visible
29 Nov 6.1 20:08:30 10° WNW 20:10:52 15° NW 20:10:52 15° NW visible
30 Nov 3.7 17:49:47 10° SW 17:55:13 78° NW 17:59:48 15° NNE visible
30 Nov 5.7 19:36:01 10° WNW 19:39:43 18° NW 19:40:30 18° NNW visible
01 Dec 3.6 17:18:11 10° SSW 17:23:36 81° ESE 17:29:05 10° NE visible
01 Dec 5.5 19:03:40 10° W 19:07:51 22° NW 19:10:04 18° N visible
02 Dec 5.3 18:31:26 10° W 18:36:01 27° NW 18:39:35 15° N visible
03 Dec 4.9 17:59:20 10° WSW 18:04:15 34° NW 18:09:03 11° NNE visible
03 Dec 6.2 19:48:33 10° NNW 19:49:35 11° NNW 19:49:43 11° NNW visible
04 Dec 4.6 17:27:21 10° WSW 17:32:31 43° NW 17:37:43 10° NNE visible
04 Dec 6.0 19:15:24 10° NW 19:17:36 12° NNW 19:19:09 11° N visible
05 Dec 4.2 16:55:29 10° SW 17:00:49 55° NW 17:06:11 10° NNE visible
05 Dec 5.9 18:42:41 10° WNW 18:45:38 15° NNW 18:48:33 10° N visible
